weather.gov     
National Weather Service

Terminal Aerodrome Forecast
NWS Homepage
This page is being discontinued on March 12, 2014.
The same data is available at this site. Please update your bookmarks.
Thank you, and we apologize for the inconvenience.
Please send an email to SR-SRH.Webmaster@noaa.gov with any concerns.


Current Version
Previous Version:    01  02  03  04  05  06  07  08  09  10  11  12  13  14  15  16  17  18  19  20  21  22  23  24  25  26  27  
[Printable]
616
FTAK31 PAJN 201100 RRA
TAFAWG
TAF
PAWG 201142Z 2012/2112 09008KT P6SM -RA OVC035 WS020/12030KT
     FM201800 12012KT 6SM -RA BR BKN025 OVC035
     FM210100 10006KT 6SM -RA BR BKN020 OVC050
      AMD LTD TO CLD VIS AND WIND 2012/2015=


U.S. Dept. of Commerce
NOAA National Weather Service
1325 East West Highway
Silver Spring, MD 20910
E-mail: w-nws.webmaster@noaa.gov
Page last modified: May 16, 2007
NATIONAL WEATHER SERVICE: for Safety, for Work, for Fun - FOR LIFE